CES6924 ZLDH-ZLXY

Flight info

Callsign CES6924
Flight time N/A
Altitude 31100
Route VIKUP W191 DNC W565 BIGUX W214 HO
Aircraft B38M/M-SDE1FGHILORVWXY/HB1

Departure

Time N/A
Airport Dunhuang Mogao International Airport (ZLDH)

Arrival

Time 2026-05-05 14:19
Airport Xi'an Xianyang International Airport (ZLXY)
Time Latitude Longitude Altitude Speed Heading
2026-05-05 13:51 34.52791 108.62254 11778 ft 281 kts 198°
2026-05-05 13:51 34.50926 108.61542 11322 ft 281 kts 198°
2026-05-05 13:51 34.49061 108.60875 10854 ft 278 kts 198°
2026-05-05 13:52 34.47224 108.60190 10400 ft 274 kts 202°
2026-05-05 13:52 34.45691 108.58892 9927 ft 270 kts 229°
2026-05-05 13:52 34.44481 108.57173 9505 ft 267 kts 228°
2026-05-05 13:52 34.43243 108.55500 9014 ft 265 kts 227°
2026-05-05 13:53 34.42042 108.53873 8681 ft 258 kts 227°
2026-05-05 13:53 34.40853 108.52259 8631 ft 258 kts 227°
2026-05-05 13:53 34.39658 108.50638 8659 ft 259 kts 227°
2026-05-05 13:53 34.38480 108.49043 8403 ft 259 kts 227°
2026-05-05 13:54 34.37275 108.47411 8023 ft 257 kts 227°
2026-05-05 13:54 34.36091 108.45807 7673 ft 253 kts 227°
2026-05-05 13:54 34.34922 108.44246 7322 ft 247 kts 223°
2026-05-05 13:54 34.33477 108.43236 6943 ft 239 kts 192°
2026-05-05 13:55 34.31834 108.43310 6554 ft 239 kts 167°
2026-05-05 13:55 34.30269 108.43832 6192 ft 235 kts 168°
2026-05-05 13:55 34.28701 108.44336 5792 ft 232 kts 167°
2026-05-05 13:55 34.27273 108.45212 5369 ft 234 kts 138°
2026-05-05 13:56 34.26463 108.46911 4972 ft 237 kts 104°
2026-05-05 13:56 34.26552 108.48833 4647 ft 227 kts 72°
2026-05-05 13:56 34.27389 108.50391 4213 ft 217 kts 50°
2026-05-05 13:56 34.28334 108.51706 3988 ft 198 kts 51°
2026-05-05 13:57 34.29219 108.52948 3890 ft 194 kts 51°
2026-05-05 13:57 34.30095 108.54166 3859 ft 183 kts 51°
2026-05-05 13:57 34.30889 108.55265 3956 ft 172 kts 51°
2026-05-05 13:57 34.31677 108.56352 4019 ft 171 kts 52°
2026-05-05 13:58 34.32455 108.57423 3970 ft 168 kts 51°
2026-05-05 13:58 34.33224 108.58479 3923 ft 167 kts 52°
2026-05-05 13:58 34.33984 108.59522 3891 ft 166 kts 51°
2026-05-05 13:58 34.34747 108.60570 3886 ft 166 kts 51°
2026-05-05 13:59 34.36277 108.62670 3695 ft 164 kts 51°
2026-05-05 13:59 34.37019 108.63688 3499 ft 163 kts 51°
2026-05-05 14:00 34.38494 108.65711 3133 ft 157 kts 51°
2026-05-05 14:00 34.38971 108.66365 3021 ft 157 kts 50°
2026-05-05 14:00 34.39927 108.67681 2764 ft 154 kts 49°
2026-05-05 14:00 34.40636 108.68654 2584 ft 154 kts 48°
2026-05-05 14:01 34.41342 108.69636 2365 ft 156 kts 47°
2026-05-05 14:01 34.42052 108.70609 2160 ft 156 kts 52°
2026-05-05 14:01 34.42797 108.71562 2005 ft 157 kts 45°
2026-05-05 14:01 34.43510 108.72565 1778 ft 156 kts 40°
2026-05-05 14:02 34.44190 108.73548 1686 ft 154 kts 47°
2026-05-05 14:02 34.44942 108.74478 2115 ft 154 kts 39°
2026-05-05 14:02 34.45778 108.75395 2360 ft 173 kts 47°
2026-05-05 14:02 34.46486 108.76612 2839 ft 183 kts 63°
2026-05-05 14:03 34.47020 108.78064 3240 ft 199 kts 63°
2026-05-05 14:03 34.48104 108.79166 3145 ft 214 kts 17°
2026-05-05 14:03 34.49568 108.79143 3138 ft 219 kts 351°
2026-05-05 14:03 34.51087 108.79091 3231 ft 219 kts 18°
2026-05-05 14:04 34.52535 108.79715 3395 ft 223 kts 20°
2026-05-05 14:04 34.54000 108.80321 3549 ft 223 kts 20°
2026-05-05 14:04 34.55473 108.80925 3696 ft 224 kts 17°
2026-05-05 14:04 34.57022 108.81069 3754 ft 226 kts 348°
2026-05-05 14:05 34.58379 108.80149 3832 ft 228 kts 311°
2026-05-05 14:05 34.59091 108.78454 3889 ft 229 kts 277°
2026-05-05 14:05 34.58950 108.76591 3946 ft 226 kts 249°
2026-05-05 14:05 34.58416 108.74799 3949 ft 228 kts 250°
2026-05-05 14:06 34.57899 108.72908 3919 ft 245 kts 250°
2026-05-05 14:06 34.57358 108.70868 3919 ft 262 kts 252°
2026-05-05 14:06 34.56801 108.68728 3910 ft 270 kts 252°
2026-05-05 14:06 34.56223 108.66534 3910 ft 275 kts 251°
2026-05-05 14:07 34.55499 108.64392 3898 ft 273 kts 234°
2026-05-05 14:07 34.54178 108.62971 3914 ft 240 kts 200°
2026-05-05 14:07 34.52619 108.62323 3926 ft 233 kts 197°
2026-05-05 14:07 34.51131 108.61729 3906 ft 221 kts 196°
2026-05-05 14:08 34.49665 108.61164 3986 ft 221 kts 195°
2026-05-05 14:08 34.48246 108.60627 4821 ft 213 kts 196°
2026-05-05 14:08 34.46780 108.60178 5535 ft 226 kts 193°
2026-05-05 14:08 34.45329 108.59257 5517 ft 248 kts 227°
2026-05-05 14:09 34.44340 108.57483 5626 ft 261 kts 232°
2026-05-05 14:09 34.43213 108.55734 5731 ft 265 kts 229°
2026-05-05 14:09 34.42039 108.54027 5811 ft 266 kts 228°
2026-05-05 14:09 34.40875 108.52380 5899 ft 249 kts 227°
2026-05-05 14:10 34.39772 108.50845 5897 ft 235 kts 226°
2026-05-05 14:10 34.38665 108.49322 5921 ft 246 kts 226°
2026-05-05 14:10 34.37555 108.47803 5880 ft 239 kts 226°
2026-05-05 14:10 34.36442 108.46290 5899 ft 236 kts 226°
2026-05-05 14:11 34.35380 108.44848 5897 ft 223 kts 226°
2026-05-05 14:11 34.34220 108.43577 5874 ft 232 kts 206°
2026-05-05 14:11 34.32640 108.43164 5846 ft 234 kts 177°
2026-05-05 14:11 34.31070 108.43581 5692 ft 228 kts 167°
2026-05-05 14:12 34.29587 108.44055 5468 ft 220 kts 168°
2026-05-05 14:12 34.28144 108.44551 5210 ft 213 kts 160°
2026-05-05 14:12 34.26987 108.45636 4923 ft 213 kts 128°
2026-05-05 14:12 34.26468 108.47291 4671 ft 213 kts 98°
2026-05-05 14:13 34.26699 108.49049 4415 ft 216 kts 67°
2026-05-05 14:13 34.27551 108.50516 4168 ft 211 kts 51°
2026-05-05 14:13 34.28485 108.51845 3968 ft 204 kts 51°
2026-05-05 14:13 34.29378 108.53110 3847 ft 191 kts 51°
2026-05-05 14:14 34.30223 108.54308 3840 ft 189 kts 51°
2026-05-05 14:14 34.31084 108.55514 3877 ft 190 kts 51°
2026-05-05 14:14 34.31953 108.56720 3912 ft 189 kts 51°
2026-05-05 14:14 34.32811 108.57906 3906 ft 187 kts 51°
2026-05-05 14:15 34.33669 108.59088 3891 ft 186 kts 51°
2026-05-05 14:15 34.34518 108.60252 3949 ft 182 kts 51°
2026-05-05 14:15 34.35343 108.61387 3917 ft 178 kts 51°
2026-05-05 14:15 34.36156 108.62502 3735 ft 175 kts 51°
2026-05-05 14:16 34.36954 108.63598 3540 ft 172 kts 51°
2026-05-05 14:16 34.37728 108.64660 3338 ft 169 kts 50°
2026-05-05 14:16 34.38498 108.65716 3134 ft 167 kts 51°
2026-05-05 14:16 34.39265 108.66769 2960 ft 165 kts 50°
2026-05-05 14:17 34.40005 108.67788 2748 ft 158 kts 49°
2026-05-05 14:17 34.40720 108.68771 2567 ft 156 kts 48°
2026-05-05 14:17 34.41437 108.69755 2354 ft 156 kts 47°
2026-05-05 14:17 34.42160 108.70730 2127 ft 156 kts 49°
2026-05-05 14:18 34.42873 108.71727 1941 ft 157 kts 48°
2026-05-05 14:18 34.43586 108.72701 1718 ft 156 kts 48°
2026-05-05 14:18 34.44302 108.73684 1526 ft 155 kts 47°
2026-05-05 14:18 34.44933 108.74550 1515 ft 104 kts 49°
2026-05-05 14:19 34.45262 108.75011 1525 ft 41 kts 49°
2026-05-05 14:19 34.45409 108.75236 1509 ft 22 kts 77°
2026-05-05 14:19 34.45438 108.75429 1508 ft 24 kts 101°
2026-05-05 14:19 34.45404 108.75506 1509 ft 1 kts 166°
2026-05-05 14:20 34.45401 108.75504 1510 ft 0 kts 196°
2026-05-05 14:20 34.45368 108.75470 1514 ft 11 kts 228°
2026-05-05 14:20 34.45292 108.75417 1524 ft 12 kts 156°
2026-05-05 14:20 34.45200 108.75509 1519 ft 22 kts 141°
2026-05-05 14:21 34.45058 108.75654 1519 ft 31 kts 138°
2026-05-05 14:21 34.44916 108.75807 1523 ft 13 kts 140°
2026-05-05 14:21 34.44878 108.75809 1520 ft 6 kts 207°
2026-05-05 14:21 34.44840 108.75749 1520 ft 14 kts 234°
2026-05-05 14:22 34.44723 108.75589 1523 ft 25 kts 229°
2026-05-05 14:22 34.44670 108.75523 1523 ft 10 kts 204°
2026-05-05 14:22 34.44602 108.75558 1523 ft 16 kts 142°
2026-05-05 14:22 34.44473 108.75694 1523 ft 14 kts 140°
2026-05-05 14:23 34.44423 108.75758 1522 ft 2 kts 131°